Year,Month,Day,Hour,Minute,Value (Times are PST for temperature in C)
2014,08,12,00,00,22.00
2014,08,12,00,01,21.90
2014,08,12,00,02,21.90
2014,08,12,00,03,21.90
2014,08,12,00,04,21.80
2014,08,12,00,05,21.80
2014,08,12,00,06,21.80
2014,08,12,00,07,21.80
2014,08,12,00,08,21.70
2014,08,12,00,09,21.70
2014,08,12,00,10,21.60
2014,08,12,00,11,21.50
2014,08,12,00,12,21.50
2014,08,12,00,13,21.40
2014,08,12,00,14,21.30
2014,08,12,00,15,21.30
2014,08,12,00,16,21.20
2014,08,12,00,17,21.20
2014,08,12,00,18,21.10
2014,08,12,00,19,21.10
2014,08,12,00,20,21.00
2014,08,12,00,21,21.00
2014,08,12,00,22,20.90
2014,08,12,00,23,20.90
2014,08,12,00,24,20.80
2014,08,12,00,25,20.80
2014,08,12,00,26,20.70
2014,08,12,00,27,20.70
2014,08,12,00,28,20.70
2014,08,12,00,29,20.60
2014,08,12,00,30,20.60
2014,08,12,00,31,20.60
2014,08,12,00,32,20.60
2014,08,12,00,33,20.50
2014,08,12,00,34,20.50
2014,08,12,00,35,20.50
2014,08,12,00,36,20.40
2014,08,12,00,37,20.40
2014,08,12,00,38,20.40
2014,08,12,00,39,20.40
2014,08,12,00,40,20.40
2014,08,12,00,41,20.40
2014,08,12,00,42,20.40
2014,08,12,00,43,20.40
2014,08,12,00,44,20.30
2014,08,12,00,45,20.30
2014,08,12,00,46,20.30
2014,08,12,00,47,20.30
2014,08,12,00,48,20.30
2014,08,12,00,49,20.30
2014,08,12,00,50,20.30
2014,08,12,00,51,20.30
2014,08,12,00,52,20.30
2014,08,12,00,53,20.30
2014,08,12,00,54,20.40
2014,08,12,00,55,20.40
2014,08,12,00,56,20.40
2014,08,12,00,57,20.40
2014,08,12,00,58,20.40
2014,08,12,00,59,20.40
2014,08,12,01,00,20.40
2014,08,12,01,01,20.40
2014,08,12,01,02,20.40
2014,08,12,01,03,20.30
2014,08,12,01,04,20.30
2014,08,12,01,05,20.30
2014,08,12,01,06,20.30
2014,08,12,01,07,20.30
2014,08,12,01,08,20.30
2014,08,12,01,09,20.40
2014,08,12,01,10,20.40
2014,08,12,01,11,20.40
2014,08,12,01,12,20.50
2014,08,12,01,13,20.50
2014,08,12,01,14,20.60
2014,08,12,01,15,20.60
2014,08,12,01,16,20.60
2014,08,12,01,17,20.60
2014,08,12,01,18,20.60
2014,08,12,01,19,20.60
2014,08,12,01,20,20.70
2014,08,12,01,21,20.70
2014,08,12,01,22,20.70
2014,08,12,01,23,20.70
2014,08,12,01,24,20.70
2014,08,12,01,25,20.80
2014,08,12,01,26,20.80
2014,08,12,01,27,20.80
2014,08,12,01,28,20.80
2014,08,12,01,29,20.80
2014,08,12,01,30,20.80
2014,08,12,01,31,20.80
2014,08,12,01,32,20.90
2014,08,12,01,33,20.90
2014,08,12,01,34,20.90
2014,08,12,01,35,20.90
2014,08,12,01,36,20.90
2014,08,12,01,37,20.90
2014,08,12,01,38,20.90
2014,08,12,01,39,20.90
2014,08,12,01,40,20.90
2014,08,12,01,41,20.90
2014,08,12,01,42,20.90
2014,08,12,01,43,20.90
2014,08,12,01,44,20.90
2014,08,12,01,45,20.80
2014,08,12,01,46,20.80
2014,08,12,01,47,20.80
2014,08,12,01,48,20.80
2014,08,12,01,49,20.70
2014,08,12,01,50,20.70
2014,08,12,01,51,20.70
2014,08,12,01,52,20.70
2014,08,12,01,53,20.70
2014,08,12,01,54,20.70
2014,08,12,01,55,20.60
2014,08,12,01,56,20.60
2014,08,12,01,57,20.60
2014,08,12,01,58,20.60
2014,08,12,01,59,20.60
2014,08,12,02,00,20.60
2014,08,12,02,01,20.60
2014,08,12,02,02,20.70
2014,08,12,02,03,20.70
2014,08,12,02,04,20.70
2014,08,12,02,05,20.60
2014,08,12,02,06,20.60
2014,08,12,02,07,20.60
2014,08,12,02,08,20.60
2014,08,12,02,09,20.60
2014,08,12,02,10,20.50
2014,08,12,02,11,20.50
2014,08,12,02,12,20.50
2014,08,12,02,13,20.50
2014,08,12,02,14,20.40
2014,08,12,02,15,20.40
2014,08,12,02,16,20.40
2014,08,12,02,17,20.40
2014,08,12,02,18,20.40
2014,08,12,02,19,20.40
2014,08,12,02,20,20.40
2014,08,12,02,21,20.40
2014,08,12,02,22,20.50
2014,08,12,02,23,20.50
2014,08,12,02,24,20.50
2014,08,12,02,25,20.60
2014,08,12,02,26,20.60
2014,08,12,02,27,20.60
2014,08,12,02,28,20.60
2014,08,12,02,29,20.60
2014,08,12,02,30,20.60
2014,08,12,02,31,20.60
2014,08,12,02,32,20.60
2014,08,12,02,33,20.60
2014,08,12,02,34,20.60
2014,08,12,02,35,20.60
2014,08,12,02,36,20.60
2014,08,12,02,37,20.60
2014,08,12,02,38,20.60
2014,08,12,02,39,20.60
2014,08,12,02,40,20.60
2014,08,12,02,41,20.60
2014,08,12,02,42,20.60
2014,08,12,02,43,20.60
2014,08,12,02,44,20.60
2014,08,12,02,45,20.60
2014,08,12,02,46,20.60
2014,08,12,02,47,20.60
2014,08,12,02,48,20.60
2014,08,12,02,49,20.60
2014,08,12,02,50,20.50
2014,08,12,02,51,20.50
2014,08,12,02,52,20.50
2014,08,12,02,53,20.50
2014,08,12,02,54,20.40
2014,08,12,02,55,20.40
2014,08,12,02,56,20.30
2014,08,12,02,57,20.30
2014,08,12,02,58,20.30
2014,08,12,02,59,20.20
2014,08,12,03,00,20.20
2014,08,12,03,01,20.20
2014,08,12,03,02,20.10
2014,08,12,03,03,20.10
2014,08,12,03,04,20.10
2014,08,12,03,05,20.00
2014,08,12,03,06,20.00
2014,08,12,03,07,19.90
2014,08,12,03,08,19.90
2014,08,12,03,09,19.90
2014,08,12,03,10,19.90
2014,08,12,03,11,19.80
2014,08,12,03,12,19.80
2014,08,12,03,13,19.80
2014,08,12,03,14,19.80
2014,08,12,03,15,19.70
2014,08,12,03,16,19.70
2014,08,12,03,17,19.70
2014,08,12,03,18,19.70
2014,08,12,03,19,19.70
2014,08,12,03,20,19.60
2014,08,12,03,21,19.60
2014,08,12,03,22,19.60
2014,08,12,03,23,19.60
2014,08,12,03,24,19.60
2014,08,12,03,25,19.60
2014,08,12,03,26,19.50
2014,08,12,03,27,19.50
2014,08,12,03,28,19.40
2014,08,12,03,29,19.40
2014,08,12,03,30,19.40
2014,08,12,03,31,19.40
2014,08,12,03,32,19.30
2014,08,12,03,33,19.30
2014,08,12,03,34,19.30
2014,08,12,03,35,19.30
2014,08,12,03,36,19.30
2014,08,12,03,37,19.20
2014,08,12,03,38,19.20
2014,08,12,03,39,19.20
2014,08,12,03,40,19.20
2014,08,12,03,41,19.20
2014,08,12,03,42,19.20
2014,08,12,03,43,19.10
2014,08,12,03,44,19.10
2014,08,12,03,45,19.10
2014,08,12,03,46,19.10
2014,08,12,03,47,19.10
2014,08,12,03,48,19.10
2014,08,12,03,49,19.00
2014,08,12,03,50,19.00
2014,08,12,03,51,19.00
2014,08,12,03,52,19.00
2014,08,12,03,53,19.00
2014,08,12,03,54,18.90
2014,08,12,03,55,18.90
2014,08,12,03,56,18.90
2014,08,12,03,57,18.90
2014,08,12,03,58,18.90
2014,08,12,03,59,18.90
2014,08,12,04,00,18.90
2014,08,12,04,01,18.90
2014,08,12,04,02,18.90
2014,08,12,04,03,18.90
2014,08,12,04,04,18.90
2014,08,12,04,05,18.90
2014,08,12,04,06,18.90
2014,08,12,04,07,18.80
2014,08,12,04,08,18.80
2014,08,12,04,09,18.80
2014,08,12,04,10,18.80
2014,08,12,04,11,18.80
2014,08,12,04,12,18.80
2014,08,12,04,13,18.80
2014,08,12,04,14,18.80
2014,08,12,04,15,18.80
2014,08,12,04,16,18.80
2014,08,12,04,17,18.70
2014,08,12,04,18,18.80
2014,08,12,04,19,18.80
2014,08,12,04,20,18.80
2014,08,12,04,21,18.80
2014,08,12,04,22,18.80
2014,08,12,04,23,18.80
2014,08,12,04,24,18.80
2014,08,12,04,25,18.80
2014,08,12,04,26,18.80
2014,08,12,04,27,18.80
2014,08,12,04,28,18.80
2014,08,12,04,29,18.80
2014,08,12,04,30,18.80
2014,08,12,04,31,18.80
2014,08,12,04,32,18.80
2014,08,12,04,33,18.80
2014,08,12,04,34,18.80
2014,08,12,04,35,18.80
2014,08,12,04,36,18.80
2014,08,12,04,37,18.90
2014,08,12,04,38,18.90
2014,08,12,04,39,18.90
2014,08,12,04,40,18.90
2014,08,12,04,41,18.90
2014,08,12,04,42,18.90
2014,08,12,04,43,18.90
2014,08,12,04,44,18.90
2014,08,12,04,45,18.80
2014,08,12,04,46,18.80
2014,08,12,04,47,18.80
2014,08,12,04,48,18.80
2014,08,12,04,49,18.80
2014,08,12,04,50,18.80
2014,08,12,04,51,18.90
2014,08,12,04,52,18.90
2014,08,12,04,53,18.90
2014,08,12,04,54,18.90
2014,08,12,04,55,19.00
2014,08,12,04,56,19.10
2014,08,12,04,57,19.10
2014,08,12,04,58,19.10
2014,08,12,04,59,19.20
2014,08,12,05,00,19.20
2014,08,12,05,01,19.20
2014,08,12,05,02,19.20
2014,08,12,05,03,19.30
2014,08,12,05,04,19.30
2014,08,12,05,05,19.30
2014,08,12,05,06,19.30
2014,08,12,05,07,19.30
2014,08,12,05,08,19.30
2014,08,12,05,09,19.30
2014,08,12,05,10,19.30
2014,08,12,05,11,19.30
2014,08,12,05,12,19.30
2014,08,12,05,13,19.30
2014,08,12,05,14,19.30
2014,08,12,05,15,19.30
2014,08,12,05,16,19.30
2014,08,12,05,17,19.30
2014,08,12,05,18,19.30
2014,08,12,05,19,19.30
2014,08,12,05,20,19.30
2014,08,12,05,21,19.30
2014,08,12,05,22,19.30
2014,08,12,05,23,19.30
2014,08,12,05,24,19.30
2014,08,12,05,25,19.30
2014,08,12,05,26,19.30
2014,08,12,05,27,19.40
2014,08,12,05,28,19.40
2014,08,12,05,29,19.30
2014,08,12,05,30,19.40
2014,08,12,05,31,19.30
2014,08,12,05,32,19.30
2014,08,12,05,33,19.40
2014,08,12,05,34,19.40
2014,08,12,05,35,19.40
2014,08,12,05,36,19.40
2014,08,12,05,37,19.40
2014,08,12,05,38,19.40
2014,08,12,05,39,19.40
2014,08,12,05,40,19.40
2014,08,12,05,41,19.40
2014,08,12,05,42,19.40
2014,08,12,05,43,19.40
2014,08,12,05,44,19.40
2014,08,12,05,45,19.40
2014,08,12,05,46,19.40
2014,08,12,05,47,19.40
2014,08,12,05,48,19.40
2014,08,12,05,49,19.40
2014,08,12,05,50,19.40
2014,08,12,05,51,19.40
2014,08,12,05,52,19.40
2014,08,12,05,53,19.40
2014,08,12,05,54,19.40
2014,08,12,05,55,19.40
2014,08,12,05,56,19.40
2014,08,12,05,57,19.40
2014,08,12,05,58,19.40
2014,08,12,05,59,19.40
2014,08,12,06,00,19.30
2014,08,12,06,01,19.30
2014,08,12,06,02,19.30
2014,08,12,06,03,19.30
2014,08,12,06,04,19.30
2014,08,12,06,05,19.30
2014,08,12,06,06,19.40
2014,08,12,06,07,19.40
2014,08,12,06,08,19.40
2014,08,12,06,09,19.40
2014,08,12,06,10,19.40
2014,08,12,06,11,19.40
2014,08,12,06,12,19.40
2014,08,12,06,13,19.40
2014,08,12,06,14,19.40
2014,08,12,06,15,19.40
2014,08,12,06,16,19.40
2014,08,12,06,17,19.30
2014,08,12,06,18,19.30
2014,08,12,06,19,19.30
2014,08,12,06,20,19.30
2014,08,12,06,21,19.30
2014,08,12,06,22,19.30
2014,08,12,06,23,19.30
2014,08,12,06,24,19.30
2014,08,12,06,25,19.30
2014,08,12,06,26,19.30
2014,08,12,06,27,19.30
2014,08,12,06,28,19.30
2014,08,12,06,29,19.30
2014,08,12,06,30,19.30
2014,08,12,06,31,19.30
2014,08,12,06,32,19.30
2014,08,12,06,33,19.30
2014,08,12,06,34,19.30
2014,08,12,06,35,19.30
2014,08,12,06,36,19.30
2014,08,12,06,37,19.30
2014,08,12,06,38,19.30
2014,08,12,06,39,19.30
2014,08,12,06,40,19.30
2014,08,12,06,41,19.30
2014,08,12,06,42,19.30
2014,08,12,06,43,19.30
2014,08,12,06,44,19.30
2014,08,12,06,45,19.30
2014,08,12,06,46,19.30
2014,08,12,06,47,19.30
2014,08,12,06,48,19.30
2014,08,12,06,49,19.30
2014,08,12,06,50,19.30
2014,08,12,06,51,19.30
2014,08,12,06,52,19.30
2014,08,12,06,53,19.30
2014,08,12,06,54,19.30
2014,08,12,06,55,19.20
2014,08,12,06,56,19.20
2014,08,12,06,57,19.20
2014,08,12,06,58,19.20
2014,08,12,06,59,19.30
2014,08,12,07,00,19.30
2014,08,12,07,01,19.30
2014,08,12,07,02,19.30
2014,08,12,07,03,19.30
2014,08,12,07,04,19.30
2014,08,12,07,05,19.30
2014,08,12,07,06,19.30
2014,08,12,07,07,19.40
2014,08,12,07,08,19.40
2014,08,12,07,09,19.40
2014,08,12,07,10,19.40
2014,08,12,07,11,19.40
2014,08,12,07,12,19.40
2014,08,12,07,13,19.40
2014,08,12,07,14,19.50
2014,08,12,07,15,19.50
2014,08,12,07,16,19.50
2014,08,12,07,17,19.50
2014,08,12,07,18,19.50
2014,08,12,07,19,19.50
2014,08,12,07,20,19.60
2014,08,12,07,21,19.60
2014,08,12,07,22,19.60
2014,08,12,07,23,19.60
2014,08,12,07,24,19.60
2014,08,12,07,25,19.60
2014,08,12,07,26,19.60
2014,08,12,07,27,19.60
2014,08,12,07,28,19.60
2014,08,12,07,29,19.60
2014,08,12,07,30,19.60
2014,08,12,07,31,19.60
2014,08,12,07,32,19.70
2014,08,12,07,33,19.70
2014,08,12,07,34,19.70
2014,08,12,07,35,19.70
2014,08,12,07,36,19.70
2014,08,12,07,37,19.70
2014,08,12,07,38,19.70
2014,08,12,07,39,19.70
2014,08,12,07,40,19.70
2014,08,12,07,41,19.70
2014,08,12,07,42,19.70
2014,08,12,07,43,19.70
2014,08,12,07,44,19.70
2014,08,12,07,45,19.70
2014,08,12,07,46,19.70
2014,08,12,07,47,19.70
2014,08,12,07,48,19.70
2014,08,12,07,49,19.60
2014,08,12,07,50,19.60
2014,08,12,07,51,19.70
2014,08,12,07,52,19.70
2014,08,12,07,53,19.70
2014,08,12,07,54,19.70
2014,08,12,07,55,19.70
2014,08,12,07,56,19.70
2014,08,12,07,57,19.70
2014,08,12,07,58,19.70
2014,08,12,07,59,19.70
2014,08,12,08,00,19.70
2014,08,12,08,01,19.70
2014,08,12,08,02,19.70
2014,08,12,08,03,19.70
2014,08,12,08,04,19.70
2014,08,12,08,05,19.70
2014,08,12,08,06,19.70
2014,08,12,08,07,19.70
2014,08,12,08,08,19.70
2014,08,12,08,09,19.70
2014,08,12,08,10,19.70
2014,08,12,08,11,19.70
2014,08,12,08,12,19.70
2014,08,12,08,13,19.70
2014,08,12,08,14,19.60
2014,08,12,08,15,19.60
2014,08,12,08,16,19.60
2014,08,12,08,17,19.50
2014,08,12,08,18,19.50
2014,08,12,08,19,19.40
2014,08,12,08,20,19.40
2014,08,12,08,21,19.40
2014,08,12,08,22,19.30
2014,08,12,08,23,19.30
2014,08,12,08,24,19.20
2014,08,12,08,25,19.20
2014,08,12,08,26,19.10
2014,08,12,08,27,19.10
2014,08,12,08,28,19.00
2014,08,12,08,29,18.90
2014,08,12,08,30,18.90
2014,08,12,08,31,18.80
2014,08,12,08,32,18.80
2014,08,12,08,33,18.80
2014,08,12,08,34,18.70
2014,08,12,08,35,18.70
2014,08,12,08,36,18.70
2014,08,12,08,37,18.60
2014,08,12,08,38,18.60
2014,08,12,08,39,18.50
2014,08,12,08,40,18.40
2014,08,12,08,41,18.30
2014,08,12,08,42,18.30
2014,08,12,08,43,18.20
2014,08,12,08,44,18.20
2014,08,12,08,45,18.20
2014,08,12,08,46,18.20
2014,08,12,08,47,18.20
2014,08,12,08,48,18.20
2014,08,12,08,49,18.10
2014,08,12,08,50,18.10
2014,08,12,08,51,18.10
2014,08,12,08,52,18.10
2014,08,12,08,53,18.10
2014,08,12,08,54,18.10
2014,08,12,08,55,18.10
2014,08,12,08,56,18.20
2014,08,12,08,57,18.20
2014,08,12,08,58,18.20
2014,08,12,08,59,18.20
2014,08,12,09,00,18.30
2014,08,12,09,01,18.30
2014,08,12,09,02,18.30
2014,08,12,09,03,18.30
2014,08,12,09,04,18.40
2014,08,12,09,05,18.40
2014,08,12,09,06,18.40
2014,08,12,09,07,18.50
2014,08,12,09,08,18.50
2014,08,12,09,09,18.60
2014,08,12,09,10,18.60
2014,08,12,09,11,18.60
2014,08,12,09,12,18.60
2014,08,12,09,13,18.60
2014,08,12,09,14,18.70
2014,08,12,09,15,18.70
2014,08,12,09,16,18.70
2014,08,12,09,17,18.70
2014,08,12,09,18,18.70
2014,08,12,09,19,18.80
2014,08,12,09,20,18.80
2014,08,12,09,21,18.80
2014,08,12,09,22,18.80
2014,08,12,09,23,18.80
2014,08,12,09,24,18.90
2014,08,12,09,25,18.90
2014,08,12,09,26,18.90
2014,08,12,09,27,18.90
2014,08,12,09,28,18.90
2014,08,12,09,29,19.00
2014,08,12,09,30,19.00
2014,08,12,09,31,19.10
2014,08,12,09,32,19.10
2014,08,12,09,33,19.20
2014,08,12,09,34,19.20
2014,08,12,09,35,19.20
2014,08,12,09,36,19.20
2014,08,12,09,37,19.30
2014,08,12,09,38,19.30
2014,08,12,09,39,19.30
2014,08,12,09,40,19.30
2014,08,12,09,41,19.30
2014,08,12,09,42,19.30
2014,08,12,09,43,19.40
2014,08,12,09,44,19.40
2014,08,12,09,45,19.40
2014,08,12,09,46,19.40
2014,08,12,09,47,19.40
2014,08,12,09,48,19.40
2014,08,12,09,49,19.40
2014,08,12,09,50,19.50
2014,08,12,09,51,19.50
2014,08,12,09,52,19.50
2014,08,12,09,53,19.50
2014,08,12,09,54,19.60
2014,08,12,09,55,19.60
2014,08,12,09,56,19.60
2014,08,12,09,57,19.70
2014,08,12,09,58,19.70
2014,08,12,09,59,19.70
2014,08,12,10,00,19.70
2014,08,12,10,01,19.70
2014,08,12,10,02,19.70
2014,08,12,10,03,19.70
2014,08,12,10,04,19.80
2014,08,12,10,05,19.70
2014,08,12,10,06,19.70
2014,08,12,10,07,19.70
2014,08,12,10,08,19.70
2014,08,12,10,09,19.70
2014,08,12,10,10,19.70
2014,08,12,10,11,19.70
2014,08,12,10,12,19.70
2014,08,12,10,13,19.80
2014,08,12,10,14,19.80
2014,08,12,10,15,19.80
2014,08,12,10,16,19.80
2014,08,12,10,17,19.80
2014,08,12,10,18,19.90
2014,08,12,10,19,19.90
2014,08,12,10,20,19.90
2014,08,12,10,21,20.00
2014,08,12,10,22,20.00
2014,08,12,10,23,20.00
2014,08,12,10,24,20.10
2014,08,12,10,25,20.10
2014,08,12,10,26,20.20
2014,08,12,10,27,20.20
2014,08,12,10,28,20.20
2014,08,12,10,29,20.30
2014,08,12,10,30,20.40
2014,08,12,10,31,20.40
2014,08,12,10,32,20.50
2014,08,12,10,33,20.50
2014,08,12,10,34,20.60
2014,08,12,10,35,20.70
2014,08,12,10,36,20.70
2014,08,12,10,37,20.80
2014,08,12,10,38,20.80
2014,08,12,10,39,20.90
2014,08,12,10,40,20.90
2014,08,12,10,41,21.00
2014,08,12,10,42,21.00
2014,08,12,10,43,21.10
2014,08,12,10,44,21.10
2014,08,12,10,45,21.10
2014,08,12,10,46,21.20
2014,08,12,10,47,21.20
2014,08,12,10,48,21.30
2014,08,12,10,49,21.30
2014,08,12,10,50,21.30
2014,08,12,10,51,21.30
2014,08,12,10,52,21.30
2014,08,12,10,53,21.30
2014,08,12,10,54,21.30
2014,08,12,10,55,21.30
2014,08,12,10,56,21.30
2014,08,12,10,57,21.30
2014,08,12,10,58,21.30
2014,08,12,10,59,21.30
2014,08,12,11,00,21.20
2014,08,12,11,01,21.30
2014,08,12,11,02,21.30
2014,08,12,11,03,21.30
2014,08,12,11,04,21.30
2014,08,12,11,05,21.30
2014,08,12,11,06,21.20
2014,08,12,11,07,21.20
2014,08,12,11,08,21.20
2014,08,12,11,09,21.30
2014,08,12,11,10,21.30
2014,08,12,11,11,21.30
2014,08,12,11,12,21.30
2014,08,12,11,13,21.30
2014,08,12,11,14,21.30
2014,08,12,11,15,21.40
2014,08,12,11,16,21.40
2014,08,12,11,17,21.40
2014,08,12,11,18,21.40
2014,08,12,11,19,21.50
2014,08,12,11,20,21.50
2014,08,12,11,21,21.50
2014,08,12,11,22,21.60
2014,08,12,11,23,21.60
2014,08,12,11,24,21.60
2014,08,12,11,25,21.60
2014,08,12,11,26,21.60
2014,08,12,11,27,21.70
2014,08,12,11,28,21.70
2014,08,12,11,29,21.70
2014,08,12,11,30,21.70
2014,08,12,11,31,21.80
2014,08,12,11,32,21.80
2014,08,12,11,33,21.80
2014,08,12,11,34,21.90
2014,08,12,11,35,21.90
2014,08,12,11,36,21.90
2014,08,12,11,37,22.00
2014,08,12,11,38,22.00
2014,08,12,11,39,22.00
2014,08,12,11,40,22.10
2014,08,12,11,41,22.10
2014,08,12,11,42,22.10
2014,08,12,11,43,22.10
2014,08,12,11,44,22.10
2014,08,12,11,45,22.20
2014,08,12,11,46,22.20
2014,08,12,11,47,22.20
2014,08,12,11,48,22.20
2014,08,12,11,49,22.30
2014,08,12,11,50,22.30
2014,08,12,11,51,22.30
2014,08,12,11,52,22.30
2014,08,12,11,53,22.30
2014,08,12,11,54,22.40
2014,08,12,11,55,22.40
2014,08,12,11,56,22.40
2014,08,12,11,57,22.40
2014,08,12,11,58,22.40
2014,08,12,11,59,22.40
2014,08,12,12,00,22.40
2014,08,12,12,01,22.40
2014,08,12,12,02,22.40
2014,08,12,12,03,22.40
2014,08,12,12,04,22.40
2014,08,12,12,05,22.40
2014,08,12,12,06,22.40
2014,08,12,12,07,22.40
2014,08,12,12,08,22.40
2014,08,12,12,09,22.40
2014,08,12,12,10,22.40
2014,08,12,12,11,22.40
2014,08,12,12,12,22.40
2014,08,12,12,13,22.40
2014,08,12,12,14,22.40
2014,08,12,12,15,22.40
2014,08,12,12,16,22.40
2014,08,12,12,17,22.40
2014,08,12,12,18,22.40
2014,08,12,12,19,22.40
2014,08,12,12,20,22.40
2014,08,12,12,21,22.40
2014,08,12,12,22,22.40
2014,08,12,12,23,22.40
2014,08,12,12,24,22.40
2014,08,12,12,25,22.40
2014,08,12,12,26,22.50
2014,08,12,12,27,22.50
2014,08,12,12,28,22.50
2014,08,12,12,29,22.60
2014,08,12,12,30,22.60
2014,08,12,12,31,22.60
2014,08,12,12,32,22.60
2014,08,12,12,33,22.60
2014,08,12,12,34,22.60
2014,08,12,12,35,22.60
2014,08,12,12,36,22.60
2014,08,12,12,37,22.60
2014,08,12,12,38,22.60
2014,08,12,12,39,22.70
2014,08,12,12,40,22.70
2014,08,12,12,41,22.70
2014,08,12,12,42,22.80
2014,08,12,12,43,22.80
2014,08,12,12,44,22.80
2014,08,12,12,45,22.90
2014,08,12,12,46,22.90
2014,08,12,12,47,23.00
2014,08,12,12,48,23.00
2014,08,12,12,49,23.10
2014,08,12,12,50,23.10
2014,08,12,12,51,23.20
2014,08,12,12,52,23.30
2014,08,12,12,53,23.40
2014,08,12,12,54,23.40
2014,08,12,12,55,23.50
2014,08,12,12,56,23.60
2014,08,12,12,57,23.70
2014,08,12,12,58,23.80
2014,08,12,12,59,23.90
2014,08,12,13,00,24.00
2014,08,12,13,01,24.10
2014,08,12,13,02,24.20
2014,08,12,13,03,24.30
2014,08,12,13,04,24.30
2014,08,12,13,05,24.30
2014,08,12,13,06,24.40
2014,08,12,13,07,24.40
2014,08,12,13,08,24.50
2014,08,12,13,09,24.60
2014,08,12,13,10,24.60
2014,08,12,13,11,24.70
2014,08,12,13,12,24.70
2014,08,12,13,13,24.80
2014,08,12,13,14,24.80
2014,08,12,13,15,24.90
2014,08,12,13,16,25.00
2014,08,12,13,17,25.00
2014,08,12,13,18,25.10
2014,08,12,13,19,25.20
2014,08,12,13,20,25.30
2014,08,12,13,21,25.40
2014,08,12,13,22,25.50
2014,08,12,13,23,25.60
2014,08,12,13,24,25.60
2014,08,12,13,25,25.70
2014,08,12,13,26,25.70
2014,08,12,13,27,25.70
2014,08,12,13,28,25.70
2014,08,12,13,29,25.70
2014,08,12,13,30,25.70
2014,08,12,13,31,25.70
2014,08,12,13,32,25.70
2014,08,12,13,33,25.70
2014,08,12,13,34,25.70
2014,08,12,13,35,25.80
2014,08,12,13,36,25.80
2014,08,12,13,37,25.80
2014,08,12,13,38,25.80
2014,08,12,13,39,25.80
2014,08,12,13,40,25.80
2014,08,12,13,41,25.80
2014,08,12,13,42,25.90
2014,08,12,13,43,25.90
2014,08,12,13,44,25.90
2014,08,12,13,45,25.90
2014,08,12,13,46,25.90
2014,08,12,13,47,25.90
2014,08,12,13,48,25.90
2014,08,12,13,49,25.90
2014,08,12,13,50,26.00
2014,08,12,13,51,26.00
2014,08,12,13,52,26.10
2014,08,12,13,53,26.10
2014,08,12,13,54,26.10
2014,08,12,13,55,26.10
2014,08,12,13,56,26.00
2014,08,12,13,57,25.90
2014,08,12,13,58,25.90
2014,08,12,13,59,25.90
2014,08,12,14,00,25.90
2014,08,12,14,01,25.80
2014,08,12,14,02,25.80
2014,08,12,14,03,25.70
2014,08,12,14,04,25.70
2014,08,12,14,05,25.60
2014,08,12,14,06,25.60
2014,08,12,14,07,25.60
2014,08,12,14,08,25.50
2014,08,12,14,09,25.50
2014,08,12,14,10,25.50
2014,08,12,14,11,25.50
2014,08,12,14,12,25.50
2014,08,12,14,13,25.50
2014,08,12,14,14,25.60
2014,08,12,14,15,25.60
2014,08,12,14,16,25.70
2014,08,12,14,17,25.70
2014,08,12,14,18,25.70
2014,08,12,14,19,25.80
2014,08,12,14,20,25.80
2014,08,12,14,21,25.80
2014,08,12,14,22,25.80
2014,08,12,14,23,25.80
2014,08,12,14,24,25.90
2014,08,12,14,25,25.90
2014,08,12,14,26,25.90
2014,08,12,14,27,25.90
2014,08,12,14,28,25.90
2014,08,12,14,29,25.90
2014,08,12,14,30,25.90
2014,08,12,14,31,25.90
2014,08,12,14,32,25.90
2014,08,12,14,33,25.90
2014,08,12,14,34,25.90
2014,08,12,14,35,25.90
2014,08,12,14,36,25.90
2014,08,12,14,37,25.90
2014,08,12,14,38,25.90
2014,08,12,14,39,25.90
2014,08,12,14,40,25.90
2014,08,12,14,41,25.90
2014,08,12,14,42,25.80
2014,08,12,14,43,25.80
2014,08,12,14,44,25.80
2014,08,12,14,45,25.80
2014,08,12,14,46,25.80
2014,08,12,14,47,25.80
2014,08,12,14,48,25.80
2014,08,12,14,49,25.80
2014,08,12,14,50,25.80
2014,08,12,14,51,25.80
2014,08,12,14,52,25.80
2014,08,12,14,53,25.80
2014,08,12,14,54,25.80
2014,08,12,14,55,25.70
2014,08,12,14,56,25.70
2014,08,12,14,57,25.70
2014,08,12,14,58,25.70
2014,08,12,14,59,25.70
2014,08,12,15,00,25.60
2014,08,12,15,01,25.60
2014,08,12,15,02,25.50
2014,08,12,15,03,25.40
2014,08,12,15,04,25.40
2014,08,12,15,05,25.30
2014,08,12,15,06,25.20
2014,08,12,15,07,25.20
2014,08,12,15,08,25.10
2014,08,12,15,09,25.10
2014,08,12,15,10,25.00
2014,08,12,15,11,24.90
2014,08,12,15,12,24.90
2014,08,12,15,13,24.80
2014,08,12,15,14,24.80
2014,08,12,15,15,24.70
2014,08,12,15,16,24.70
2014,08,12,15,17,24.70
2014,08,12,15,18,24.70
2014,08,12,15,19,24.60
2014,08,12,15,20,24.60
2014,08,12,15,21,24.60
2014,08,12,15,22,24.60
2014,08,12,15,23,24.60
2014,08,12,15,24,24.60
2014,08,12,15,25,24.60
2014,08,12,15,26,24.60
2014,08,12,15,27,24.60
2014,08,12,15,28,24.60
2014,08,12,15,29,24.60
2014,08,12,15,30,24.60
2014,08,12,15,31,24.60
2014,08,12,15,32,24.60
2014,08,12,15,33,24.60
2014,08,12,15,34,24.60
2014,08,12,15,35,24.60
2014,08,12,15,36,24.70
2014,08,12,15,37,24.70
2014,08,12,15,38,24.70
2014,08,12,15,39,24.70
2014,08,12,15,40,24.70
2014,08,12,15,41,24.70
2014,08,12,15,42,24.70
2014,08,12,15,43,24.80
2014,08,12,15,44,24.80
2014,08,12,15,45,24.80
2014,08,12,15,46,24.80
2014,08,12,15,47,24.80
2014,08,12,15,48,24.80
2014,08,12,15,49,24.80
2014,08,12,15,50,24.80
2014,08,12,15,51,24.80
2014,08,12,15,52,24.90
2014,08,12,15,53,24.90
2014,08,12,15,54,24.90
2014,08,12,15,55,24.90
2014,08,12,15,56,24.90
2014,08,12,15,57,24.90
2014,08,12,15,58,25.00
2014,08,12,15,59,25.00
2014,08,12,16,00,25.10
2014,08,12,16,01,25.10
2014,08,12,16,02,25.10
2014,08,12,16,03,25.10
2014,08,12,16,04,25.10
2014,08,12,16,05,25.10
2014,08,12,16,06,25.10
2014,08,12,16,07,25.10
2014,08,12,16,08,25.10
2014,08,12,16,09,25.10
2014,08,12,16,10,25.10
2014,08,12,16,11,25.10
2014,08,12,16,12,25.10
2014,08,12,16,13,25.00
2014,08,12,16,14,25.00
2014,08,12,16,15,25.00
2014,08,12,16,16,25.00
2014,08,12,16,17,25.00
2014,08,12,16,18,24.90
2014,08,12,16,19,24.90
2014,08,12,16,20,24.90
2014,08,12,16,21,24.90
2014,08,12,16,22,24.90
2014,08,12,16,23,25.00
2014,08,12,16,24,25.00
2014,08,12,16,25,25.00
2014,08,12,16,26,24.90
2014,08,12,16,27,25.00
2014,08,12,16,28,25.00
2014,08,12,16,29,25.00
2014,08,12,16,30,24.90
2014,08,12,16,31,24.90
2014,08,12,16,32,24.90
2014,08,12,16,33,24.90
2014,08,12,16,34,25.00
2014,08,12,16,35,25.00
2014,08,12,16,36,25.00
2014,08,12,16,37,25.10
2014,08,12,16,38,25.10
2014,08,12,16,39,25.10
2014,08,12,16,40,25.10
2014,08,12,16,41,25.10
2014,08,12,16,42,25.20
2014,08,12,16,43,25.20
2014,08,12,16,44,25.30
2014,08,12,16,45,25.30
2014,08,12,16,46,25.30
2014,08,12,16,47,25.40
2014,08,12,16,48,25.40
2014,08,12,16,49,25.40
2014,08,12,16,50,25.40
2014,08,12,16,51,25.40
2014,08,12,16,52,25.40
2014,08,12,16,53,25.40
2014,08,12,16,54,25.40
2014,08,12,16,55,25.40
2014,08,12,16,56,25.30
2014,08,12,16,57,25.30
2014,08,12,16,58,25.30
2014,08,12,16,59,25.30
2014,08,12,17,00,25.30
2014,08,12,17,01,25.30
2014,08,12,17,02,25.40
2014,08,12,17,03,25.40
2014,08,12,17,04,25.50
2014,08,12,17,05,25.60
2014,08,12,17,06,25.60
2014,08,12,17,07,25.60
2014,08,12,17,08,25.70
2014,08,12,17,09,25.70
2014,08,12,17,10,25.70
2014,08,12,17,11,25.70
2014,08,12,17,12,25.70
2014,08,12,17,13,25.60
2014,08,12,17,14,25.50
2014,08,12,17,15,25.50
2014,08,12,17,16,25.40
2014,08,12,17,17,25.40
2014,08,12,17,18,25.40
2014,08,12,17,19,25.30